952  
ASUS43 KDTX 220001  
RWRMI  
MICHIGAN HOURLY REGIONAL WEATHER ROUNDUP  
NATIONAL WEATHER SERVICE DETROIT/PONTIAC MI  
800 PM EDT FRI JUN 21 2024  
 
NOTE: "FAIR" INDICATES FEW OR NO CLOUDS BELOW 12,000 FEET WITH NO  
SIGNIFICANT WEATHER AND/OR TO VISIBILITY
.  
 
MIZ047>049-052>055-059>063-066>070-074>076-081>083-220100-  
SOUTHEAST LOWER MICHIGAN  
 
CITY SKY/WX TMP DP RH WIND PRES REMARKS
 
ADRIAN SUNNY 89 71 55 CALM 30.10S HX 95 TC 32  
6HR MIN TEMP: 83; 6HR MAX TEMP: 92;  
 
ALMA CLOUDY 75 70 85 NE8 30.12R TC 24  
6HR MIN TEMP: 75; 6HR MAX TEMP: 89;  
 
ANN ARBOR MOSUNNY 85 74 69 CALM 30.09S HX 92 TC 29  
BAD AXE CLOUDY 74 66 75 CALM 30.12R TC 24  
6HR MIN TEMP: 74; 6HR MAX TEMP: 83;  
 
CARO LGT RAIN 73 72 99 SW3 30.12R TC 23  
DETROIT CITY MOSUNNY 80 70 71 N12 30.10R TC 27  
6HR MIN TEMP: 80; 6HR MAX TEMP: 90; 6HR PCP: 0.03;  
 
DETROIT PTSUNNY 87 69 54 S3 30.09S HX 91 TC 31  
6HR MIN TEMP: 84; 6HR MAX TEMP: 88;  
 
FLINT MOSUNNY 78 73 84 NE7G16 30.11R TC 26  
6HR MIN TEMP: 72; 6HR MAX TEMP: 89; 6HR PCP: 0.33;  
 
GROSSE ILE MOSUNNY 79 73 80 CALM 30.09R TC 26  
6HR MIN TEMP: 77; 6HR MAX TEMP: 88;  
 
HILLSDALE SUNNY 85 59 41 NW7 30.12S TC 30  
6HR MIN TEMP: 85; 6HR MAX TEMP: 91;  
 
HOWELL MOSUNNY 79 71 76 E3 30.12R TC 26  
6HR MIN TEMP: 78; 6HR MAX TEMP: 89;  
 
 
CITY SKY/WX TMP DP RH WIND PRES REMARKS
 
JACKSON SUNNY 85 69 58 W6 30.11S TC 29  
6HR MIN TEMP: 85; 6HR MAX TEMP: 88;  
 
LAMBERTVILLE SUNNY 84 69 60 CALM 30.09R TC 29  
6HR MIN TEMP: 76; 6HR MAX TEMP: 86;  
 
LANSING SUNNY 86 69 56 W9 30.10S HX 90 TC 30  
6HR MIN TEMP: 83; 6HR MAX TEMP: 89;  
 
LAPEER CLOUDY 73 72 98 E3 30.13R TC 23  
6HR MIN TEMP: 69; 6HR MAX TEMP: 88; 6HR PCP: 0.67;  
 
MASON MOSUNNY 86 68 54 NW6 30.11R HX 90 TC 30  
6HR MIN TEMP: 85; 6HR MAX TEMP: 89;  
 
MONROE SUNNY 82 72 71 CALM 30.09R TC 28  
6HR MIN TEMP: 73; 6HR MAX TEMP: 87; 6HR PCP: 0.37;  
 
MT. CLEMENS LGT RAIN 73 72 94 N5 30.08F TC 23  
PONTIAC PTSUNNY 75 71 87 CALM 30.13R TC 24  
6HR MIN TEMP: 72; 6HR MAX TEMP: 89; 6HR PCP: 0.32;  
 
PORT HOPE N/A 68 63 84 NE5 30.12S TC 20  
6HR MIN TEMP: 67; 6HR MAX TEMP: 72;  
 
PORT HURON PTSUNNY 72 68 88 N5 30.12F TC 22  
TRI CITIES HVY RAIN 73 70 90 N3 30.13R FOG TC 23  
6HR MIN TEMP: 72; 6HR MAX TEMP: 80; 6HR PCP: 0.42;  
 
MIDLAND LGT RAIN 73 70 88 SE7 30.11R FOG TC 23  
6HR MIN TEMP: 73; 6HR MAX TEMP: 88;  
 
TROY PTSUNNY 77 68 73 NE8 30.14S TC 25  
SAGINAW HB LGT RAIN 72 72 100 E6 30.09F FOG TC 22  
6HR MIN TEMP: 72; 6HR MAX TEMP: 87;  
 

 
MIZ043>046-050>051-056>058-064>065-071>073-077>080-220100-  
SOUTHWEST LOWER MICHIGAN  
 
CITY SKY/WX TMP DP RH WIND PRES REMARKS
 
BATTLE CREEK SUNNY 86 67 52 W7 30.11S TC 30  
6HR MIN TEMP: 86; 6HR MAX TEMP: 90;  
 
BENTON HARBOR SUNNY 89 69 51 CALM 30.08S HX 93 TC 32  
6HR MIN TEMP: 85; 6HR MAX TEMP: 92;  
 
BIG RAPIDS PTSUNNY 79 72 79 CALM 30.11S TC 26  
6HR MIN TEMP: 77; 6HR MAX TEMP: 87; 6HR PCP: 0.03;  
 
COLDWATER SUNNY 86 71 59 CALM 30.11S HX 92 TC 30  
6HR MIN TEMP: 86; 6HR MAX TEMP: 91;  
 
FREMONT MOSUNNY 82 69 64 W5 30.10R TC 28  
6HR MIN TEMP: 82; 6HR MAX TEMP: 89;  
 
HOLLAND SUNNY 84 63 49 CALM 30.10S TC 29  
6HR MIN TEMP: 83; 6HR MAX TEMP: 90;  
 
GRAND RAPIDS MOSUNNY 86 64 47 W10 30.10S TC 30  
6HR MIN TEMP: 85; 6HR MAX TEMP: 89;  
 
IONIA SUNNY 87 65 48 W6 30.09S TC 30  
6HR MIN TEMP: 78; 6HR MAX TEMP: 89; 6HR PCP: 0.01;  
 
KALAMAZOO SUNNY 88 67 49 NW6 30.10S HX 91 TC 31  
6HR MIN TEMP: 87; 6HR MAX TEMP: 91;  
 
LUDINGTON CLOUDY 70 68 92 N7 30.11R TC 21  
6HR MIN TEMP: 70; 6HR MAX TEMP: 80; 6HR PCP: 0.02;  
 
MARSHALL SUNNY 85 67 53 CALM 30.11R TC 30  
6HR MIN TEMP: 85; 6HR MAX TEMP: 90;  
 
MUSKEGON MOSUNNY 79 67 66 CALM 30.10S TC 26  
6HR MIN TEMP: 75; 6HR MAX TEMP: 84;  
 
SOUTH HAVEN SUNNY 86 68 55 CALM 30.09S TC 30  

 
MIZ016>042-220100-  
NORTHERN LOWER MICHIGAN  
 
CITY SKY/WX TMP DP RH WIND PRES REMARKS
 
ALPENA CLOUDY 67 64 90 SE5 30.14R TC 19  
6HR MIN TEMP: 67; 6HR MAX TEMP: 73;  
 
BEAVER ISLAND CLOUDY 64 64 99 CALM 30.15R TC 18  
6HR MIN TEMP: 63; 6HR MAX TEMP: 69;  
 
BELLAIRE LGT RAIN 70 64 83 CALM 30.12S TC 21  
6HR MIN TEMP: 68; 6HR MAX TEMP: 75;  
 
CADILLAC CLOUDY 75 70 83 N5 30.13S TC 24  
6HR MIN TEMP: 75; 6HR MAX TEMP: 82;  
 
CHARLEVOIX CLOUDY 65 63 93 CALM 30.13S TC 18  
6HR MIN TEMP: 65; 6HR MAX TEMP: 70;  
 
CHEBOYGAN CLOUDY 66 64 94 CALM 30.13S TC 19  
FRANKFORT CLOUDY 70 62 78 N5 30.13R TC 21  
GAYLORD CLOUDY 71 65 81 NE5 30.14F TC 22  
6HR MIN TEMP: 70; 6HR MAX TEMP: 76;  
 
HARBOR SPRINGS CLOUDY 67 64 90 E3 30.13S TC 20  
MANISTEE CLOUDY 71 71 100 W3 30.11R TC 22  
OSCODA CLOUDY 66 62 87 NE3 30.14S TC 19  
6HR MIN TEMP: 66; 6HR MAX TEMP: 76;  
 
PELLSTON CLOUDY 68 64 87 NE3 30.14S TC 20  
6HR MIN TEMP: 67; 6HR MAX TEMP: 69; 6HR PCP: 0.09;  
 
ROGERS CITY LGT RAIN 64 61 88 CALM 30.15S TC 18  
TRAVERSE CITY CLOUDY 68 63 84 NW9 30.11R TC 20  
6HR MIN TEMP: 68; 6HR MAX TEMP: 76;  
 

 
MIZ007>008-015-220100-  
EASTERN UPPER MICHIGAN  
 
CITY SKY/WX TMP DP RH WIND PRES REMARKS
 
KINROSS CLOUDY 62 56 80 N8 30.15R TC 17  
6HR MIN TEMP: 62; 6HR MAX TEMP: 70; 6HR PCP: TRACE;  
 
MACKINAC ISLAN CLOUDY 65 65 100 CALM 30.14R TC 18  
6HR MIN TEMP: 65; 6HR MAX TEMP: 67; 6HR PCP: 0.02;  
 
NEWBERRY CLOUDY 62 56 81 N6 30.16R TC 17  
6HR MIN TEMP: 62; 6HR MAX TEMP: 74;  
 
S. S. MARIE PTSUNNY 62 58 86 W9 30.14R TC 17  
6HR MIN TEMP: 61; 6HR MAX TEMP: 73; 6HR PCP: TRACE;  
 

 
MIZ004>006-011>014-085-220100-  
CENTRAL UPPER MICHIGAN  
 
CITY SKY/WX TMP DP RH WIND PRES REMARKS
 
MANISTIQUE CLOUDY 64 60 87 N6 30.16R TC 18  
6HR MIN TEMP: 63; 6HR MAX TEMP: 68; 6HR PCP: 0.01;  
 
ESCANABA CLOUDY 63 61 93 N3 30.17R TC 17  
6HR MIN TEMP: 63; 6HR MAX TEMP: 67; 6HR PCP: 0.06;  
 
MENOMINEE LGT RAIN 63 63 100 E5 30.15F TC 17  
6HR MIN TEMP: 63; 6HR MAX TEMP: 67;  
 
SAWYER-GWINN SUNNY 63 55 77 CALM 30.16F TC 17  
MUNISING N/A 56 49 77 CALM 30.16F TC 13  
6HR MIN TEMP: 54; 6HR MAX TEMP: 58; 6HR PCP: 0.02;  
 

 
MIZ001>003-009>011-084-220100-  
WESTERN UPPER MICHIGAN  
 
CITY SKY/WX TMP DP RH WIND PRES REMARKS
 
IRON MOUNTAIN LGT RAIN 63 59 87 NE3 30.15F FOG TC 17  
6HR MIN TEMP: 63; 6HR MAX TEMP: 66; 6HR PCP: TRACE;  
 
HOUGHTON CLOUDY 66 56 70 SE3 30.14F TC 19  
6HR MIN TEMP: 62; 6HR MAX TEMP: 69;  
 
COPPER HARBOR N/A 62 46 55 VRB3 30.14F TC 17  
6HR MIN TEMP: 55; 6HR MAX TEMP: 66;  
 
IRONWOOD CLOUDY 64 61 90 NE5 30.14F TC 18  
6HR MIN TEMP: 62; 6HR MAX TEMP: 67;  
 

 
 
ABBREVIATIONS USED IN REMARKS  
TC - TEMPERATURE IN CELSIUS  
WCI - WIND CHILL INDEX  
HX - HEAT INDEX  
VSB - VISIBILITY  
 
 
 
CLICK HERE TO GO TO PREVIOUS BULLETINS.

The Nexlab MI Page Main Text Page